Back to catalog

FENGYUN 1C DEB

AliveSSO
NORAD 37911·DEBRIS·🇨🇳 China

Launched May 10, 1999 from Taiyuan Satellite Launch Center

Loading…

Next Passes (next 24 hours)

TLE

FreshSource: Space-Track

Epoch: Sep 13, 2026, 16:34 UTC

1 37911U 99025ENL 26256.69067250  .00001632  00000-0  10771-2 0  9992
2 37911  99.2886 344.3977 0138595  78.2727 283.3948 13.98581827805514

Track FENGYUN 1C DEB in real time with AllMySat

Download on the App Store